Weather History for KELM - September, 2013

Change the Weather History Date:

Friday, September 27, 2013

  Actual Average Record
Temperature  
Mean Temperature 56 °F -  
Max Temperature 71 °F 68 °F 84 °F (1970)
Min Temperature 42 °F 44 °F 26 °F (1947)
Degree Days  
Heating Degree Days 8    
Growing Degree Days 6 (Base 50)    
Moisture  
Dew Point 47 °F    
Average Humidity 84    
Maximum Humidity 100    
Minimum Humidity 50    
Precipitation  
Precipitation 0.00 in - - ()
Sea Level Pressure  
Sea Level Pressure 30.22 in    
Wind  
Wind Speed 3 mph (West)    
Max Wind Speed 9 mph    
Max Gust Speed -    
Visibility 5 miles    
Events Fog    
Averages and records for this station are not official NWS values.
T = Trace of Precipitation, MM = Missing Value Source: NWS Daily Summary

Daily Weather History Graph

Daily Weather History Graph

Search for Another Location

Airport or City:

Trip Planner

Search our weather history database for the weather conditions in past years. The results will help you decide how hot, cold, wet, or windy it might be!

Date:

Astronomy

Sep. 27, 2013 Rise Set
Actual Time 7:00 AM EDT 6:55 PM EDT
Civil Twilight 6:32 AM EDT 7:23 PM EDT
Nautical Twilight 6:00 AM EDT 7:56 PM EDT
Astronomical Twilight 5:26 AM EDT 8:29 PM EDT
Moon No Moon Rise 2:38 PM EDT (9/27)
Length of Visible Light 12h 50m
Length of Day
11h 55m
Last Quarter, 45% of the Moon is Illuminated
Sep 27
Last Quarter
Oct 4
New
Oct 11
First Quarter
Oct 18
Full
Oct 26
Last Quarter

Hourly Weather History & Observations

Time (EDT) Temp. Windchill Dew Point Humidity Pressure Visibility Wind Dir Wind Speed Gust Speed Precip Events Conditions
12:53 AM 46.9 °F - 45.0 °F 93% 30.15 in 8.0 mi WSW 3.5 mph - N/A   Clear
1:48 AM 44.6 °F 43.1 °F 42.8 °F 93% 30.16 in 1.8 mi WSW 3.5 mph - N/A   Clear
1:53 AM 44.1 °F - 43.0 °F 96% 30.16 in 1.0 mi Calm Calm - N/A   Clear
2:16 AM 42.8 °F - 41.0 °F 93% 30.16 in 0.8 mi Calm Calm - N/A   Mist
2:38 AM 42.8 °F 41.1 °F 41.0 °F 93% 30.16 in 1.0 mi West 3.5 mph - N/A   Mist
2:45 AM 44.6 °F 43.1 °F 42.8 °F 93% 30.16 in 0.2 mi West 3.5 mph - N/A Fog Fog
2:53 AM 46.0 °F - 45.0 °F 96% 30.17 in 0.2 mi Calm Calm - N/A Fog Fog
3:53 AM 48.0 °F - 46.0 °F 93% 30.17 in 0.2 mi WSW 3.5 mph - N/A Fog Fog
4:34 AM 48.2 °F - 46.4 °F 93% 30.18 in 0.2 mi West 3.5 mph - N/A Fog Fog
4:53 AM 48.0 °F - 46.0 °F 93% 30.18 in 0.2 mi West 3.5 mph - N/A Fog Fog
5:53 AM 46.9 °F - 45.0 °F 93% 30.20 in 0.2 mi West 3.5 mph - N/A Fog Fog
6:53 AM 46.0 °F 44.8 °F 45.0 °F 96% 30.22 in 0.2 mi WNW 3.5 mph - N/A Fog Fog
7:53 AM 46.9 °F - 45.0 °F 93% 30.24 in 0.2 mi SW 3.5 mph - N/A Fog Fog
8:53 AM 46.9 °F - 45.0 °F 93% 30.26 in 0.2 mi West 4.6 mph - N/A Fog Fog
9:32 AM 46.4 °F - 46.4 °F 100% 30.25 in 0.5 mi Calm Calm - N/A Fog Fog
9:53 AM 48.0 °F - 46.9 °F 96% 30.27 in 1.0 mi Calm Calm - N/A   Overcast
10:47 AM 53.6 °F - 48.2 °F 82% 30.26 in 3.0 mi Calm Calm - N/A   Haze
10:53 AM 54.0 °F - 48.0 °F 80% 30.27 in 10.0 mi Calm Calm - N/A   Partly Cloudy
11:53 AM 60.1 °F - 51.1 °F 72% 30.26 in 10.0 mi Variable 3.5 mph - N/A   Clear
12:53 PM 64.0 °F - 51.1 °F 63% 30.25 in 10.0 mi Calm Calm - N/A   Clear
1:53 PM 66.9 °F - 50.0 °F 54% 30.23 in 10.0 mi SE 4.6 mph - N/A   Clear
2:53 PM 68.0 °F - 48.9 °F 50% 30.21 in 10.0 mi Calm Calm - N/A   Clear
3:53 PM 71.1 °F - 52.0 °F 51% 30.20 in 10.0 mi NE 9.2 mph - N/A   Scattered Clouds
4:53 PM 70.0 °F - 52.0 °F 53% 30.20 in 10.0 mi NE 6.9 mph - N/A   Clear
5:53 PM 68.0 °F - 51.1 °F 55% 30.21 in 10.0 mi NNE 6.9 mph - N/A   Clear
6:53 PM 62.1 °F - 50.0 °F 65% 30.22 in 10.0 mi NNE 5.8 mph - N/A   Clear
7:53 PM 57.0 °F - 50.0 °F 77% 30.24 in 10.0 mi ENE 5.8 mph - N/A   Clear
8:53 PM 54.0 °F - 50.0 °F 86% 30.25 in 10.0 mi Calm Calm - N/A   Clear
9:53 PM 50.0 °F - 46.9 °F 89% 30.27 in 9.0 mi Calm Calm - N/A   Clear
10:53 PM 48.9 °F - 46.9 °F 93% 30.28 in 10.0 mi Calm Calm - N/A   Clear
11:43 PM 44.6 °F - 44.6 °F 100% 30.27 in 2.5 mi Calm Calm - N/A   Clear
11:53 PM 45.0 °F - 43.0 °F 93% 30.28 in 1.0 mi Calm Calm - N/A   Clear
11:59 PM 44.6 °F - 42.8 °F 93% 30.27 in 4.0 mi Calm Calm - N/A   Clear